TimeCST,TemperatureF,Dew PointF,Humidity,Sea Level PressureIn,VisibilityMPH,Wind Direction,Wind SpeedMPH,Gust SpeedMPH,PrecipitationIn,Events,Conditions,WindDirDegrees,DateUTC
12:52 AM,41.0,26.1,55,30.07,10.0,SSW,20.7,31.1,N/A,,Clear,210,2013-01-10 06:52:00
1:52 AM,39.9,24.1,53,30.06,10.0,SSW,23.0,29.9,N/A,,Clear,210,2013-01-10 07:52:00
2:52 AM,39.9,25.0,55,30.06,10.0,SSW,19.6,-,N/A,,Clear,200,2013-01-10 08:52:00
3:52 AM,39.9,23.0,51,30.04,10.0,SSW,21.9,29.9,N/A,,Clear,210,2013-01-10 09:52:00
4:52 AM,39.9,21.0,47,30.01,10.0,SSW,18.4,28.8,N/A,,Clear,200,2013-01-10 10:52:00
5:52 AM,36.0,21.0,55,30.00,10.0,SSW,15.0,-,N/A,,Clear,200,2013-01-10 11:52:00
6:52 AM,35.1,21.0,57,30.00,10.0,SSW,12.7,-,N/A,,Clear,200,2013-01-10 12:52:00
7:52 AM,33.1,21.0,61,29.98,10.0,South,13.8,-,N/A,,Clear,190,2013-01-10 13:52:00
8:52 AM,34.0,23.0,64,29.97,10.0,SSW,13.8,-,N/A,,Clear,200,2013-01-10 14:52:00
9:13 AM,35.6,23.0,60,29.89,10.0,SSW,16.1,-,N/A,,Mostly Cloudy,200,2013-01-10 15:13:00
9:30 AM,37.4,23.0,56,29.87,10.0,South,16.1,-,N/A,,Scattered Clouds,190,2013-01-10 15:30:00
9:52 AM,39.9,24.1,53,29.90,10.0,South,17.3,-,N/A,,Clear,190,2013-01-10 15:52:00
10:52 AM,46.0,25.0,44,29.86,10.0,SSW,16.1,-,N/A,,Clear,200,2013-01-10 16:52:00
11:52 AM,46.4,28.4,50,29.79,10.0,South,17.3,23.0,N/A,,Clear,190,2013-01-10 17:52:00
12:52 PM,48.2,33.8,58,29.71,10.0,South,15.0,-,N/A,,Clear,190,2013-01-10 18:52:00
1:52 PM,48.2,37.4,66,29.67,10.0,SSW,15.0,-,N/A,,Mostly Cloudy,200,2013-01-10 19:52:00
2:52 PM,48.0,37.0,66,29.69,10.0,South,11.5,-,N/A,,Mostly Cloudy,190,2013-01-10 20:52:00
3:08 PM,48.2,37.4,66,29.64,10.0,South,12.7,-,N/A,,Scattered Clouds,190,2013-01-10 21:08:00
3:52 PM,46.9,36.0,66,29.65,10.0,South,11.5,-,N/A,,Clear,170,2013-01-10 21:52:00
4:52 PM,45.0,36.0,71,29.64,10.0,SSW,8.1,-,N/A,,Clear,200,2013-01-10 22:52:00
5:52 PM,41.0,36.0,82,29.62,10.0,SSW,15.0,-,N/A,,Clear,200,2013-01-10 23:52:00
6:49 PM,39.2,35.6,87,29.56,10.0,SSW,12.7,-,N/A,,Mostly Cloudy,200,2013-01-11 00:49:00
6:52 PM,39.0,35.1,86,29.60,10.0,South,13.8,-,N/A,,Mostly Cloudy,190,2013-01-11 00:52:00
7:14 PM,39.2,35.6,87,29.55,10.0,SSW,18.4,-,N/A,,Overcast,200,2013-01-11 01:14:00
7:52 PM,37.9,35.1,89,29.61,8.0,SSW,10.4,-,N/A,,Overcast,210,2013-01-11 01:52:00
8:14 PM,37.4,35.6,93,29.53,6.0,SSW,15.0,21.9,N/A,,Overcast,200,2013-01-11 02:14:00
8:52 PM,37.0,35.1,93,29.58,8.0,SSW,19.6,25.3,N/A,,Overcast,210,2013-01-11 02:52:00
9:52 PM,36.0,34.0,93,29.55,9.0,SSW,15.0,-,N/A,,Overcast,210,2013-01-11 03:52:00
10:52 PM,36.0,34.0,93,29.55,10.0,SW,15.0,-,N/A,,Overcast,220,2013-01-11 04:52:00
11:52 PM,35.6,33.8,93,29.50,10.0,SW,12.7,-,N/A,,Overcast,220,2013-01-11 05:52:00